Weather History for TNCB - October, 2010

Change the Weather History Date:

Sunday, October 3, 2010

  Actual Average Record
Temperature  
Mean Temperature 80 °F -  
Max Temperature 84 °F 88 °F 93 °F (2005)
Min Temperature 75 °F 81 °F 75 °F (2010)
Cooling Degree Days 14    
Growing Degree Days 30 (Base 50)    
Moisture  
Dew Point 76 °F    
Average Humidity 85    
Maximum Humidity 100    
Minimum Humidity 69    
Precipitation  
Precipitation 0.00 in - - ()
Sea Level Pressure  
Sea Level Pressure 29.83 in    
Wind  
Wind Speed 11 mph ()    
Max Wind Speed 18 mph    
Max Gust Speed -    
Visibility 7.4 miles    
Events Rain    
Averages and records for this station are not official NWS values.
T = Trace of Precipitation, MM = Missing Value Source: Averaged Metar Reports

Daily Weather History Graph

Daily Weather History Graph

Search for Another Location

Airport or City:

Trip Planner

Search our weather history database for the weather conditions in past years. The results will help you decide how hot, cold, wet, or windy it might be!

Date:

Astronomy

Oct. 03, 2010 Rise Set
Actual Time 6:22 AM AST 6:21 PM AST
Civil Twilight 6:01 AM AST 6:43 PM AST
Nautical Twilight 5:36 AM AST 7:07 PM AST
Astronomical Twilight 5:11 AM AST 7:32 PM AST
Moon 2:06 AM AST (10/3) 2:59 PM AST (10/3)
Length of Visible Light 12h 41m
Length of Day
11h 59m
Waning Crescent, 23% of the Moon is Illuminated
Oct 3
Waning Crescent
Oct 7
New
Oct 14
First Quarter
Oct 22
Full
Oct 30
Last Quarter

Hourly Weather History & Observations

Time (AST) Temp. Heat Index Dew Point Humidity Pressure Visibility Wind Dir Wind Speed Gust Speed Precip Events Conditions
12:00 AM 82.4 °F 90.9 °F 77.0 °F 84% 29.83 in - North - - N/A   Unknown
1:00 AM 82.4 °F 90.9 °F 77.0 °F 84% 29.83 in - North - - N/A   Unknown
2:00 AM 82 °F - 77 °F 81%  in 6 mi East 13.8 mph - -   Clear
2:00 AM 82.4 °F 90.9 °F 77.0 °F 84% 29.83 in - North - - N/A   Unknown
3:00 AM 82.4 °F 90.9 °F 77.0 °F 84% 29.83 in - North - - N/A   Unknown
4:00 AM 82.4 °F 90.9 °F 77.0 °F 84% 29.83 in - North - - N/A   Unknown
5:00 AM 82 °F - 77 °F 81%  in 6 mi East 13.8 mph - -  
5:00 AM 82.4 °F 90.9 °F 77.0 °F 84% 29.83 in - North - - N/A   Unknown
6:00 AM 82.4 °F 90.9 °F 77.0 °F 84% 29.83 in - North - - N/A   Unknown
7:00 AM 82.4 °F 90.9 °F 77.0 °F 84% 29.83 in - North - - N/A   Unknown
8:00 AM - - - %  in - Calm Calm - -  
8:00 AM 82.4 °F 90.9 °F 77.0 °F 84% 29.83 in - North - - N/A   Unknown
9:00 AM 75.2 °F - 75.2 °F 100% 29.86 in 6.2 mi West 18.4 mph - N/A Rain Rain
10:00 AM 80.6 °F 87.1 °F 77.0 °F 89% 29.89 in - North - - N/A   Unknown
11:00 AM 80.6 °F 87.1 °F 77.0 °F 89% 29.89 in 6.2 mi East 13.8 mph - N/A Rain Rain
12:00 PM 82.4 °F 90.9 °F 77.0 °F 84% 29.86 in - North - - N/A   Unknown
1:00 PM 80.6 °F 86.2 °F 75.2 °F 84% 29.86 in 6.2 mi WSW 11.5 mph - N/A   Mostly Cloudy
2:00 PM 80 °F - 76 °F 84%  in 12 mi ESE 13.8 mph - -   Clear
2:00 PM 80.6 °F 86.2 °F 75.2 °F 84% 29.83 in - North - - N/A   Unknown
3:00 PM 80.6 °F 86.2 °F 75.2 °F 84% 29.77 in - North - - N/A   Unknown
4:00 PM 82.4 °F 89.5 °F 75.2 °F 79% 29.77 in 6.2 mi West 8.1 mph - N/A   Scattered Clouds
5:00 PM 84 °F - 75 °F 69% 29.79 in 12 mi ESE 13.8 mph - -   Partly Cloudy
5:00 PM 84.2 °F 92.3 °F 75.2 °F 74% 29.77 in 6.2 mi NW 4.6 mph - N/A   Scattered Clouds
6:00 PM 82.4 °F 90.9 °F 77.0 °F 84% 29.80 in - North - - N/A   Unknown
7:00 PM 80.6 °F 86.2 °F 75.2 °F 84% 29.83 in - East 13.8 mph - N/A   Unknown
8:00 PM 77.0 °F - 75.2 °F 94% 29.86 in 6.2 mi North - - N/A Rain Rain
9:00 PM 77.0 °F - 75.2 °F 94% 29.86 in 6.2 mi NNW 10.4 mph - N/A Rain Light Rain
10:00 PM 78.8 °F - 75.2 °F 89% 29.89 in - North - - N/A Rain Light Rain
11:00 PM 79 °F - 76 °F 86%  in 9 mi ESE 13.8 mph - -   Clear
11:00 PM 78.8 °F - 75.2 °F 89% 29.86 in - North - - N/A   Unknown